Time,TemperatureF,DewpointF,PressureIn,WindDirection,WindDirectionDegrees,WindSpeedMPH,WindSpeedGustMPH,Humidity,HourlyPrecipIn,Conditions,Clouds,dailyrainin,SoftwareType,DateUTC
2013-05-12 00:00:00,62.1,61.5,29.61,West,262,0.0,3.0,98,0.00,,,0.00,Wunderground v.1.15,2013-05-12 04:00:00,
2013-05-12 00:01:00,62.1,61.5,29.61,West,261,0.0,1.0,98,0.00,,,0.00,Wunderground v.1.15,2013-05-12 04:01:00,
2013-05-12 00:02:00,62.0,61.4,29.61,West,276,1.0,3.0,98,0.00,,,0.00,Wunderground v.1.15,2013-05-12 04:02:00,
2013-05-12 00:03:00,62.0,61.4,29.61,WNW,291,0.0,3.0,98,0.00,,,0.00,Wunderground v.1.15,2013-05-12 04:03:00,
2013-05-12 00:08:00,61.9,61.3,29.61,West,281,2.0,3.0,98,0.00,,,0.00,Wunderground v.1.15,2013-05-12 04:08:00,
2013-05-12 00:13:00,61.8,61.2,29.60,WNW,284,2.0,2.0,98,0.00,,,0.00,Wunderground v.1.15,2013-05-12 04:13:00,
2013-05-12 00:18:00,61.8,61.2,29.60,NW,314,1.0,3.0,98,0.00,,,0.00,Wunderground v.1.15,2013-05-12 04:18:00,
2013-05-12 00:23:00,61.7,61.1,29.58,NE,47,0.0,2.0,98,0.00,,,0.00,Wunderground v.1.15,2013-05-12 04:23:00,
2013-05-12 00:28:00,61.6,61.0,29.58,WSW,257,0.0,3.0,98,0.00,,,0.00,Wunderground v.1.15,2013-05-12 04:28:00,
2013-05-12 00:33:00,61.6,60.7,29.58,WSW,257,0.0,1.0,97,0.00,,,0.00,Wunderground v.1.15,2013-05-12 04:33:00,
2013-05-12 00:38:00,61.5,60.6,29.59,WSW,257,0.0,1.0,97,0.00,,,0.00,Wunderground v.1.15,2013-05-12 04:38:00,
2013-05-12 00:43:00,61.4,60.5,29.59,WSW,256,1.0,1.0,97,0.00,,,0.00,Wunderground v.1.15,2013-05-12 04:43:00,
2013-05-12 00:49:00,61.3,60.4,29.59,West,277,2.0,2.0,97,0.00,,,0.00,Wunderground v.1.15,2013-05-12 04:49:00,
2013-05-12 00:54:00,61.2,60.3,29.60,NW,307,1.0,1.0,97,0.00,,,0.00,Wunderground v.1.15,2013-05-12 04:54:00,
2013-05-12 00:59:00,61.2,60.3,29.60,WNW,287,1.0,4.0,97,0.00,,,0.00,Wunderground v.1.15,2013-05-12 04:59:00,
2013-05-12 01:04:00,61.2,60.1,29.59,West,269,1.0,2.0,96,0.00,,,0.00,Wunderground v.1.15,2013-05-12 05:04:00,
2013-05-12 01:09:00,61.1,59.7,29.58,WNW,294,2.0,4.0,95,0.00,,,0.00,Wunderground v.1.15,2013-05-12 05:09:00,
2013-05-12 01:14:00,61.0,59.6,29.58,West,276,1.0,2.0,95,0.00,,,0.00,Wunderground v.1.15,2013-05-12 05:14:00,
2013-05-12 01:19:00,60.9,59.5,29.58,WNW,284,3.0,4.0,95,0.00,,,0.00,Wunderground v.1.15,2013-05-12 05:19:00,
2013-05-12 01:24:00,60.9,59.2,29.58,West,276,1.0,3.0,94,0.00,,,0.00,Wunderground v.1.15,2013-05-12 05:24:00,
2013-05-12 01:29:00,60.8,59.1,29.59,West,259,2.0,3.0,94,0.00,,,0.00,Wunderground v.1.15,2013-05-12 05:29:00,
2013-05-12 01:34:00,60.7,59.0,29.58,WNW,292,0.0,3.0,94,0.00,,,0.00,Wunderground v.1.15,2013-05-12 05:34:00,
2013-05-12 01:39:00,60.7,59.0,29.58,West,281,0.0,3.0,94,0.00,,,0.00,Wunderground v.1.15,2013-05-12 05:39:00,
2013-05-12 01:44:00,60.6,59.2,29.58,WNW,295,1.0,1.0,95,0.00,,,0.00,Wunderground v.1.15,2013-05-12 05:44:00,
2013-05-12 01:49:00,60.6,59.2,29.58,West,261,1.0,1.0,95,0.00,,,0.00,Wunderground v.1.15,2013-05-12 05:49:00,
2013-05-12 01:54:00,60.5,59.1,29.58,WNW,290,1.0,3.0,95,0.00,,,0.00,Wunderground v.1.15,2013-05-12 05:54:00,
2013-05-12 01:59:00,60.5,59.1,29.58,WSW,255,2.0,3.0,95,0.00,,,0.00,Wunderground v.1.15,2013-05-12 05:59:00,
2013-05-12 02:04:00,60.4,59.0,29.57,SW,236,2.0,2.0,95,0.00,,,0.00,Wunderground v.1.15,2013-05-12 06:04:00,
2013-05-12 02:09:00,60.3,58.9,29.57,WNW,296,0.0,4.0,95,0.00,,,0.00,Wunderground v.1.15,2013-05-12 06:09:00,
2013-05-12 02:14:00,60.2,58.8,29.56,West,277,0.0,2.0,95,0.00,,,0.00,Wunderground v.1.15,2013-05-12 06:14:00,
2013-05-12 02:19:00,60.1,58.7,29.55,West,277,1.0,3.0,95,0.00,,,0.00,Wunderground v.1.15,2013-05-12 06:19:00,
2013-05-12 02:24:00,60.0,58.6,29.55,West,280,0.0,3.0,95,0.00,,,0.00,Wunderground v.1.15,2013-05-12 06:24:00,
2013-05-12 02:29:00,59.9,58.5,29.56,West,269,0.0,3.0,95,0.00,,,0.00,Wunderground v.1.15,2013-05-12 06:29:00,
2013-05-12 02:34:00,59.8,58.4,29.55,NNW,335,1.0,3.0,95,0.00,,,0.00,Wunderground v.1.15,2013-05-12 06:34:00,
2013-05-12 02:39:00,59.7,58.3,29.56,WNW,283,0.0,4.0,95,0.00,,,0.00,Wunderground v.1.15,2013-05-12 06:39:00,
2013-05-12 02:44:00,59.7,58.0,29.56,NW,316,1.0,5.0,94,0.00,,,0.00,Wunderground v.1.15,2013-05-12 06:44:00,
2013-05-12 02:49:00,59.7,58.0,29.56,WNW,302,1.0,5.0,94,0.00,,,0.00,Wunderground v.1.15,2013-05-12 06:49:00,
2013-05-12 02:54:00,59.7,57.7,29.56,NW,308,2.0,5.0,93,0.00,,,0.00,Wunderground v.1.15,2013-05-12 06:54:00,
2013-05-12 02:59:00,59.6,57.3,29.56,NNW,335,3.0,6.0,92,0.00,,,0.00,Wunderground v.1.15,2013-05-12 06:59:00,
2013-05-12 03:04:00,59.7,57.1,29.57,WNW,283,1.0,3.0,91,0.00,,,0.00,Wunderground v.1.15,2013-05-12 07:04:00,
2013-05-12 03:09:00,59.7,57.1,29.57,WNW,285,1.0,4.0,91,0.00,,,0.00,Wunderground v.1.15,2013-05-12 07:09:00,
2013-05-12 03:14:00,59.6,57.0,29.57,WNW,285,0.0,1.0,91,0.00,,,0.00,Wunderground v.1.15,2013-05-12 07:14:00,
2013-05-12 03:19:00,59.5,56.6,29.57,West,276,0.0,2.0,90,0.00,,,0.00,Wunderground v.1.15,2013-05-12 07:19:00,
2013-05-12 03:24:00,59.6,56.4,29.57,West,278,1.0,2.0,89,0.00,,,0.00,Wunderground v.1.15,2013-05-12 07:24:00,
2013-05-12 03:30:00,59.6,56.0,29.57,WNW,284,1.0,3.0,88,0.00,,,0.00,Wunderground v.1.15,2013-05-12 07:30:00,
2013-05-12 03:35:00,59.6,56.0,29.58,WNW,284,1.0,3.0,88,0.00,,,0.00,Wunderground v.1.15,2013-05-12 07:35:00,
2013-05-12 03:40:00,59.6,56.0,29.57,West,280,1.0,3.0,88,0.00,,,0.00,Wunderground v.1.15,2013-05-12 07:40:00,
2013-05-12 03:45:00,59.6,56.0,29.57,WNW,284,2.0,2.0,88,0.00,,,0.00,Wunderground v.1.15,2013-05-12 07:45:00,
2013-05-12 03:50:00,59.5,55.9,29.57,WNW,284,1.0,2.0,88,0.00,,,0.00,Wunderground v.1.15,2013-05-12 07:50:00,
2013-05-12 03:55:00,59.4,55.8,29.56,West,276,0.0,2.0,88,0.00,,,0.00,Wunderground v.1.15,2013-05-12 07:55:00,
2013-05-12 04:00:00,59.2,55.6,29.56,WSW,252,0.0,2.0,88,0.00,,,0.00,Wunderground v.1.15,2013-05-12 08:00:00,
2013-05-12 04:05:00,59.1,55.9,29.57,West,269,2.0,2.0,89,0.00,,,0.00,Wunderground v.1.15,2013-05-12 08:05:00,
2013-05-12 04:10:00,59.0,55.8,29.58,West,274,2.0,2.0,89,0.00,,,0.00,Wunderground v.1.15,2013-05-12 08:10:00,
2013-05-12 04:15:00,58.9,55.7,29.58,WNW,286,0.0,1.0,89,0.00,,,0.00,Wunderground v.1.15,2013-05-12 08:15:00,
2013-05-12 04:20:00,58.9,55.7,29.58,WNW,287,3.0,3.0,89,0.00,,,0.00,Wunderground v.1.15,2013-05-12 08:20:00,
2013-05-12 04:25:00,59.0,55.8,29.59,West,273,0.0,2.0,89,0.00,,,0.00,Wunderground v.1.15,2013-05-12 08:25:00,
2013-05-12 04:30:00,58.9,55.7,29.59,WNW,288,0.0,2.0,89,0.00,,,0.00,Wunderground v.1.15,2013-05-12 08:30:00,
2013-05-12 04:36:00,58.8,55.3,29.58,WSW,239,0.0,1.0,88,0.00,,,0.00,Wunderground v.1.15,2013-05-12 08:36:00,
2013-05-12 04:41:00,58.7,55.2,29.57,WSW,239,0.0,1.0,88,0.00,,,0.00,Wunderground v.1.15,2013-05-12 08:41:00,
2013-05-12 04:46:00,58.6,55.4,29.57,WSW,239,0.0,0.0,89,0.00,,,0.00,Wunderground v.1.15,2013-05-12 08:46:00,
2013-05-12 04:51:00,58.5,55.0,29.57,West,280,0.0,1.0,88,0.00,,,0.00,Wunderground v.1.15,2013-05-12 08:51:00,
2013-05-12 04:56:00,58.5,55.0,29.58,West,281,1.0,1.0,88,0.00,,,0.00,Wunderground v.1.15,2013-05-12 08:56:00,
2013-05-12 05:01:00,58.6,55.1,29.58,WSW,248,0.0,4.0,88,0.00,,,0.00,Wunderground v.1.15,2013-05-12 09:01:00,
2013-05-12 05:06:00,58.5,55.0,29.58,West,278,0.0,1.0,88,0.00,,,0.00,Wunderground v.1.15,2013-05-12 09:06:00,
2013-05-12 05:11:00,58.4,55.2,29.58,West,278,1.0,1.0,89,0.00,,,0.00,Wunderground v.1.15,2013-05-12 09:11:00,
2013-05-12 05:16:00,58.4,55.2,29.59,West,271,1.0,1.0,89,0.00,,,0.00,Wunderground v.1.15,2013-05-12 09:16:00,
2013-05-12 05:21:00,58.3,54.8,29.59,West,277,1.0,1.0,88,0.00,,,0.00,Wunderground v.1.15,2013-05-12 09:21:00,
2013-05-12 05:26:00,58.3,54.8,29.59,West,278,0.0,2.0,88,0.00,,,0.00,Wunderground v.1.15,2013-05-12 09:26:00,
2013-05-12 05:31:00,58.3,54.8,29.60,West,278,1.0,1.0,88,0.00,,,0.00,Wunderground v.1.15,2013-05-12 09:31:00,
2013-05-12 05:36:00,58.3,54.8,29.60,West,270,1.0,1.0,88,0.00,,,0.00,Wunderground v.1.15,2013-05-12 09:36:00,
2013-05-12 05:41:00,58.2,54.7,29.60,WSW,245,0.0,2.0,88,0.00,,,0.00,Wunderground v.1.15,2013-05-12 09:41:00,
2013-05-12 05:46:00,58.2,54.7,29.60,West,277,0.0,2.0,88,0.00,,,0.00,Wunderground v.1.15,2013-05-12 09:46:00,
2013-05-12 05:51:00,58.1,54.6,29.59,WNW,286,0.0,1.0,88,0.00,,,0.00,Wunderground v.1.15,2013-05-12 09:51:00,
2013-05-12 05:56:00,58.1,54.6,29.60,NW,315,1.0,2.0,88,0.00,,,0.00,Wunderground v.1.15,2013-05-12 09:56:00,
2013-05-12 06:01:00,58.0,54.5,29.60,West,263,1.0,1.0,88,0.00,,,0.00,Wunderground v.1.15,2013-05-12 10:01:00,
2013-05-12 06:06:00,57.9,54.4,29.61,WNW,285,0.0,3.0,88,0.00,,,0.00,Wunderground v.1.15,2013-05-12 10:06:00,
2013-05-12 06:11:00,57.8,54.3,29.60,West,281,0.0,1.0,88,0.00,,,0.00,Wunderground v.1.15,2013-05-12 10:11:00,
2013-05-12 06:17:00,57.8,54.6,29.60,NNW,348,0.0,2.0,89,0.00,,,0.00,Wunderground v.1.15,2013-05-12 10:17:00,
2013-05-12 06:22:00,57.7,54.5,29.60,NW,316,1.0,1.0,89,0.00,,,0.00,Wunderground v.1.15,2013-05-12 10:22:00,
2013-05-12 06:27:00,57.6,54.4,29.60,North,3,1.0,2.0,89,0.00,,,0.00,Wunderground v.1.15,2013-05-12 10:27:00,
2013-05-12 06:32:00,57.6,53.8,29.61,North,349,1.0,2.0,87,0.00,,,0.00,Wunderground v.1.15,2013-05-12 10:32:00,
2013-05-12 06:37:00,57.4,52.6,29.60,WNW,290,2.0,5.0,84,0.00,,,0.01,Wunderground v.1.15,2013-05-12 10:37:00,
2013-05-12 06:42:00,57.1,52.0,29.61,NNW,332,4.0,5.0,83,0.00,,,0.01,Wunderground v.1.15,2013-05-12 10:42:00,
2013-05-12 06:47:00,56.9,51.1,29.62,NW,312,3.0,12.0,81,0.00,,,0.01,Wunderground v.1.15,2013-05-12 10:47:00,
2013-05-12 06:52:00,56.8,50.7,29.62,West,278,1.0,6.0,80,0.00,,,0.01,Wunderground v.1.15,2013-05-12 10:52:00,
2013-05-12 06:57:00,56.8,51.4,29.62,WNW,284,1.0,6.0,82,0.00,,,0.01,Wunderground v.1.15,2013-05-12 10:57:00,
2013-05-12 07:02:00,56.7,51.3,29.61,NNE,13,3.0,3.0,82,0.00,,,0.01,Wunderground v.1.15,2013-05-12 11:02:00,
2013-05-12 07:07:00,56.6,51.2,29.59,NNE,23,4.0,5.0,82,0.00,,,0.01,Wunderground v.1.15,2013-05-12 11:07:00,
2013-05-12 07:13:00,56.5,51.1,29.61,NNE,20,0.0,4.0,82,0.00,,,0.01,Wunderground v.1.15,2013-05-12 11:13:00,
2013-05-12 07:18:00,56.5,51.1,29.61,WNW,296,1.0,4.0,82,0.00,,,0.01,Wunderground v.1.15,2013-05-12 11:18:00,
2013-05-12 07:23:00,56.5,51.4,29.61,West,264,1.0,2.0,83,0.00,,,0.01,Wunderground v.1.15,2013-05-12 11:23:00,
2013-05-12 07:28:00,56.3,51.8,29.62,West,260,1.0,2.0,85,0.00,,,0.01,Wunderground v.1.15,2013-05-12 11:28:00,
2013-05-12 07:33:00,56.4,52.3,29.62,West,278,2.0,3.0,86,0.00,,,0.01,Wunderground v.1.15,2013-05-12 11:33:00,
2013-05-12 07:38:00,56.6,52.8,29.61,North,351,2.0,4.0,87,0.00,,,0.01,Wunderground v.1.15,2013-05-12 11:38:00,
2013-05-12 07:43:00,56.8,52.7,29.60,NNW,333,1.0,4.0,86,0.00,,,0.01,Wunderground v.1.15,2013-05-12 11:43:00,
2013-05-12 07:48:00,57.1,52.3,29.60,West,264,3.0,6.0,84,0.00,,,0.01,Wunderground v.1.15,2013-05-12 11:48:00,
2013-05-12 07:53:00,57.4,52.3,29.61,WNW,285,4.0,6.0,83,0.00,,,0.01,Wunderground v.1.15,2013-05-12 11:53:00,
2013-05-12 07:58:00,57.6,51.8,29.60,North,350,0.0,6.0,81,0.00,,,0.01,Wunderground v.1.15,2013-05-12 11:58:00,
2013-05-12 08:03:00,57.8,51.7,29.60,WNW,302,2.0,5.0,80,0.00,,,0.01,Wunderground v.1.15,2013-05-12 12:03:00,
2013-05-12 08:09:00,57.9,51.1,29.60,NW,307,3.0,8.0,78,0.00,,,0.01,Wunderground v.1.15,2013-05-12 12:09:00,
2013-05-12 08:14:00,58.2,50.7,29.59,East,94,0.0,9.0,76,0.00,,,0.01,Wunderground v.1.15,2013-05-12 12:14:00,
2013-05-12 08:19:00,58.6,49.6,29.59,NW,304,1.0,12.0,72,0.00,,,0.01,Wunderground v.1.15,2013-05-12 12:19:00,
2013-05-12 08:24:00,58.9,49.5,29.60,North,1,5.0,12.0,71,0.00,,,0.01,Wunderground v.1.15,2013-05-12 12:24:00,
2013-05-12 08:29:00,59.3,50.3,29.60,NE,37,4.0,12.0,72,0.00,,,0.01,Wunderground v.1.15,2013-05-12 12:29:00,
2013-05-12 08:34:00,59.4,49.6,29.59,NNE,30,4.0,10.0,70,0.00,,,0.01,Wunderground v.1.15,2013-05-12 12:34:00,
2013-05-12 08:39:00,59.7,50.7,29.60,NNW,327,3.0,10.0,72,0.00,,,0.01,Wunderground v.1.15,2013-05-12 12:39:00,
2013-05-12 08:44:00,59.9,49.3,29.60,NNW,331,3.0,8.0,68,0.00,,,0.01,Wunderground v.1.15,2013-05-12 12:44:00,
2013-05-12 08:49:00,60.2,50.0,29.60,West,269,4.0,8.0,69,0.00,,,0.01,Wunderground v.1.15,2013-05-12 12:49:00,
2013-05-12 08:54:00,60.4,49.4,29.61,NW,323,4.0,8.0,67,0.00,,,0.01,Wunderground v.1.15,2013-05-12 12:54:00,
2013-05-12 08:59:00,60.5,49.5,29.60,NNW,335,2.0,10.0,67,0.00,,,0.01,Wunderground v.1.15,2013-05-12 12:59:00,
2013-05-12 09:05:00,60.8,49.0,29.61,WSW,252,4.0,11.0,65,0.00,,,0.01,Wunderground v.1.15,2013-05-12 13:05:00,
2013-05-12 09:10:00,60.8,49.4,29.60,NNW,335,3.0,16.0,66,0.00,,,0.01,Wunderground v.1.15,2013-05-12 13:10:00,
2013-05-12 09:15:00,61.3,50.2,29.60,NE,44,5.0,7.0,67,0.00,,,0.01,Wunderground v.1.15,2013-05-12 13:15:00,
2013-05-12 09:20:00,61.5,50.0,29.60,NNW,338,2.0,8.0,66,0.00,,,0.01,Wunderground v.1.15,2013-05-12 13:20:00,
2013-05-12 09:25:00,61.7,50.2,29.60,NW,307,5.0,8.0,66,0.00,,,0.01,Wunderground v.1.15,2013-05-12 13:25:00,
2013-05-12 09:30:00,62.0,49.3,29.60,West,280,3.0,9.0,63,0.00,,,0.01,Wunderground v.1.15,2013-05-12 13:30:00,
2013-05-12 09:35:00,62.1,49.8,29.60,NNW,330,4.0,8.0,64,0.00,,,0.01,Wunderground v.1.15,2013-05-12 13:35:00,
2013-05-12 09:40:00,62.4,49.2,29.60,WSW,252,5.0,13.0,62,0.00,,,0.01,Wunderground v.1.15,2013-05-12 13:40:00,
2013-05-12 09:45:00,62.3,49.1,29.60,NW,326,3.0,11.0,62,0.00,,,0.01,Wunderground v.1.15,2013-05-12 13:45:00,
2013-05-12 09:50:00,62.8,49.6,29.59,NW,321,1.0,11.0,62,0.00,,,0.01,Wunderground v.1.15,2013-05-12 13:50:00,
2013-05-12 09:55:00,63.3,49.6,29.59,NNW,331,3.0,10.0,61,0.00,,,0.01,Wunderground v.1.15,2013-05-12 13:55:00,
2013-05-12 10:00:00,63.7,49.5,29.59,NNE,23,6.0,11.0,60,0.00,,,0.01,Wunderground v.1.15,2013-05-12 14:00:00,
2013-05-12 10:05:00,63.8,49.2,29.59,West,270,3.0,12.0,59,0.00,,,0.01,Wunderground v.1.15,2013-05-12 14:05:00,
2013-05-12 10:10:00,64.0,50.3,29.59,NNE,15,8.0,12.0,61,0.00,,,0.01,Wunderground v.1.15,2013-05-12 14:10:00,
2013-05-12 10:16:00,64.3,50.1,29.59,North,356,6.0,13.0,60,0.00,,,0.01,Wunderground v.1.15,2013-05-12 14:16:00,
2013-05-12 10:21:00,64.2,49.6,29.59,NW,307,2.0,5.0,59,0.00,,,0.01,Wunderground v.1.15,2013-05-12 14:21:00,
2013-05-12 10:26:00,64.3,49.2,29.59,West,263,11.0,11.0,58,0.00,,,0.01,Wunderground v.1.15,2013-05-12 14:26:00,
2013-05-12 10:31:00,64.5,49.4,29.59,NW,315,5.0,5.0,58,0.00,,,0.01,Wunderground v.1.15,2013-05-12 14:31:00,
2013-05-12 10:36:00,64.9,50.2,29.59,WSW,242,3.0,12.0,59,0.00,,,0.01,Wunderground v.1.15,2013-05-12 14:36:00,
2013-05-12 10:41:00,64.9,50.2,29.59,ENE,64,8.0,8.0,59,0.00,,,0.01,Wunderground v.1.15,2013-05-12 14:41:00,
2013-05-12 10:46:00,65.2,50.5,29.59,West,280,4.0,13.0,59,0.00,,,0.01,Wunderground v.1.15,2013-05-12 14:46:00,
2013-05-12 10:51:00,65.2,50.5,29.59,WNW,286,2.0,4.0,59,0.00,,,0.01,Wunderground v.1.15,2013-05-12 14:51:00,
2013-05-12 10:56:00,65.5,50.8,29.59,NNW,331,7.0,12.0,59,0.00,,,0.01,Wunderground v.1.15,2013-05-12 14:56:00,
2013-05-12 11:01:00,65.5,50.3,29.59,NW,309,3.0,6.0,58,0.00,,,0.01,Wunderground v.1.15,2013-05-12 15:01:00,
2013-05-12 11:06:00,65.2,49.6,29.59,West,263,7.0,13.0,57,0.00,,,0.01,Wunderground v.1.15,2013-05-12 15:06:00,
2013-05-12 11:12:00,65.7,50.5,29.59,WSW,257,12.0,12.0,58,0.00,,,0.01,Wunderground v.1.15,2013-05-12 15:12:00,
2013-05-12 11:17:00,65.6,50.4,29.59,WSW,250,4.0,12.0,58,0.00,,,0.01,Wunderground v.1.15,2013-05-12 15:17:00,
2013-05-12 11:22:00,65.8,49.7,29.59,NNE,26,4.0,6.0,56,0.00,,,0.01,Wunderground v.1.15,2013-05-12 15:22:00,
2013-05-12 11:27:00,66.1,49.5,29.59,WNW,290,10.0,12.0,55,0.00,,,0.01,Wunderground v.1.15,2013-05-12 15:27:00,
2013-05-12 11:32:00,66.2,50.0,29.59,WSW,248,6.0,7.0,56,0.00,,,0.01,Wunderground v.1.15,2013-05-12 15:32:00,
2013-05-12 11:37:00,66.3,47.6,29.59,NW,326,4.0,17.0,51,0.00,,,0.01,Wunderground v.1.15,2013-05-12 15:37:00,
2013-05-12 11:42:00,66.3,48.1,29.59,NNW,329,5.0,12.0,52,0.00,,,0.01,Wunderground v.1.15,2013-05-12 15:42:00,
2013-05-12 11:47:00,65.7,47.6,29.59,WNW,285,4.0,12.0,52,0.00,,,0.01,Wunderground v.1.15,2013-05-12 15:47:00,
2013-05-12 11:52:00,65.6,48.5,29.59,WNW,288,12.0,12.0,54,0.00,,,0.01,Wunderground v.1.15,2013-05-12 15:52:00,
2013-05-12 11:57:00,65.7,48.1,29.59,NNW,330,3.0,16.0,53,0.00,,,0.01,Wunderground v.1.15,2013-05-12 15:57:00,
2013-05-12 12:02:00,66.0,48.9,29.59,NW,323,4.0,7.0,54,0.00,,,0.01,Wunderground v.1.15,2013-05-12 16:02:00,
2013-05-12 12:07:00,66.3,48.7,29.58,SSE,163,3.0,14.0,53,0.00,,,0.01,Wunderground v.1.15,2013-05-12 16:07:00,
2013-05-12 12:12:00,67.5,48.7,29.59,West,276,7.0,11.0,51,0.00,,,0.01,Wunderground v.1.15,2013-05-12 16:12:00,
2013-05-12 12:17:00,68.1,48.2,29.59,NNW,339,7.0,11.0,49,0.00,,,0.01,Wunderground v.1.15,2013-05-12 16:17:00,
2013-05-12 12:22:00,67.8,46.3,29.59,West,281,3.0,15.0,46,0.00,,,0.01,Wunderground v.1.15,2013-05-12 16:22:00,
2013-05-12 12:27:00,67.8,46.3,29.59,NW,308,3.0,15.0,46,0.00,,,0.01,Wunderground v.1.15,2013-05-12 16:27:00,
2013-05-12 12:32:00,66.9,44.9,29.59,WNW,300,4.0,13.0,45,0.00,,,0.01,Wunderground v.1.15,2013-05-12 16:32:00,
2013-05-12 12:37:00,66.0,44.6,29.59,SW,214,3.0,14.0,46,0.00,,,0.01,Wunderground v.1.15,2013-05-12 16:37:00,
2013-05-12 12:43:00,66.8,45.3,29.59,NNW,334,7.0,8.0,46,0.00,,,0.01,Wunderground v.1.15,2013-05-12 16:43:00,
2013-05-12 12:48:00,66.6,43.4,29.59,NW,318,7.0,17.0,43,0.00,,,0.01,Wunderground v.1.15,2013-05-12 16:48:00,
2013-05-12 12:53:00,66.5,43.9,29.59,NNW,340,7.0,12.0,44,0.00,,,0.01,Wunderground v.1.15,2013-05-12 16:53:00,
2013-05-12 12:58:00,66.7,43.5,29.59,ENE,58,12.0,13.0,43,0.00,,,0.01,Wunderground v.1.15,2013-05-12 16:58:00,
2013-05-12 13:04:00,66.7,44.7,29.59,NNE,18,6.0,10.0,45,0.00,,,0.01,Wunderground v.1.15,2013-05-12 17:04:00,
2013-05-12 13:09:00,67.3,44.0,29.59,West,274,13.0,13.0,43,0.00,,,0.01,Wunderground v.1.15,2013-05-12 17:09:00,
2013-05-12 13:14:00,67.1,42.6,29.59,NNW,344,7.0,20.0,41,0.00,,,0.01,Wunderground v.1.15,2013-05-12 17:14:00,
2013-05-12 13:19:00,66.3,42.5,29.59,West,281,5.0,20.0,42,0.00,,,0.01,Wunderground v.1.15,2013-05-12 17:19:00,
2013-05-12 13:24:00,66.2,42.4,29.59,North,352,5.0,12.0,42,0.00,,,0.01,Wunderground v.1.15,2013-05-12 17:24:00,
2013-05-12 13:29:00,66.2,41.8,29.59,NNW,341,8.0,18.0,41,0.00,,,0.01,Wunderground v.1.15,2013-05-12 17:29:00,
2013-05-12 13:34:00,65.9,40.9,29.60,NE,36,7.0,15.0,40,0.00,,,0.01,Wunderground v.1.15,2013-05-12 17:34:00,
2013-05-12 13:39:00,65.8,40.8,29.60,West,281,13.0,18.0,40,0.00,,,0.01,Wunderground v.1.15,2013-05-12 17:39:00,
2013-05-12 13:45:00,65.9,42.8,29.60,NNE,25,6.0,13.0,43,0.00,,,0.01,Wunderground v.1.15,2013-05-12 17:45:00,
2013-05-12 13:50:00,65.8,41.4,29.60,West,269,3.0,18.0,41,0.00,,,0.01,Wunderground v.1.15,2013-05-12 17:50:00,
2013-05-12 13:55:00,65.4,39.8,29.60,NNW,331,3.0,17.0,39,0.00,,,0.01,Wunderground v.1.15,2013-05-12 17:55:00,
2013-05-12 14:00:00,65.6,40.6,29.60,West,276,3.0,17.0,40,0.00,,,0.01,Wunderground v.1.15,2013-05-12 18:00:00,
2013-05-12 14:05:00,66.0,40.3,29.60,NNW,335,4.0,11.0,39,0.00,,,0.01,Wunderground v.1.15,2013-05-12 18:05:00,
2013-05-12 14:10:00,65.5,37.8,29.60,NW,323,9.0,15.0,36,0.00,,,0.01,Wunderground v.1.15,2013-05-12 18:10:00,
2013-05-12 14:15:00,65.2,34.6,29.60,NW,323,7.0,16.0,32,0.00,,,0.01,Wunderground v.1.15,2013-05-12 18:15:00,
2013-05-12 14:20:00,65.4,35.5,29.60,West,274,5.0,16.0,33,0.00,,,0.01,Wunderground v.1.15,2013-05-12 18:20:00,
2013-05-12 14:25:00,65.5,36.4,29.60,North,349,9.0,11.0,34,0.00,,,0.01,Wunderground v.1.15,2013-05-12 18:25:00,
2013-05-12 14:30:00,65.7,35.8,29.61,West,276,9.0,13.0,33,0.00,,,0.01,Wunderground v.1.15,2013-05-12 18:30:00,
2013-05-12 14:36:00,65.0,35.2,29.60,West,278,6.0,14.0,33,0.00,,,0.01,Wunderground v.1.15,2013-05-12 18:36:00,
2013-05-12 14:41:00,65.0,33.6,29.60,WNW,294,8.0,19.0,31,0.00,,,0.01,Wunderground v.1.15,2013-05-12 18:41:00,
2013-05-12 14:46:00,64.9,34.3,29.60,NW,304,4.0,15.0,32,0.00,,,0.01,Wunderground v.1.15,2013-05-12 18:46:00,
2013-05-12 14:51:00,64.9,32.7,29.61,NW,321,10.0,16.0,30,0.00,,,0.01,Wunderground v.1.15,2013-05-12 18:51:00,
2013-05-12 14:56:00,65.2,32.1,29.61,North,352,3.0,16.0,29,0.00,,,0.01,Wunderground v.1.15,2013-05-12 18:56:00,
2013-05-12 15:01:00,65.6,34.1,29.60,NW,312,4.0,16.0,31,0.00,,,0.01,Wunderground v.1.15,2013-05-12 19:01:00,
2013-05-12 15:06:00,65.7,33.4,29.60,NNE,22,7.0,14.0,30,0.00,,,0.01,Wunderground v.1.15,2013-05-12 19:06:00,
2013-05-12 15:11:00,65.6,33.3,29.60,WNW,283,3.0,7.0,30,0.00,,,0.01,Wunderground v.1.15,2013-05-12 19:11:00,
2013-05-12 15:16:00,65.4,32.3,29.60,NE,41,10.0,12.0,29,0.00,,,0.01,Wunderground v.1.15,2013-05-12 19:16:00,
2013-05-12 15:21:00,65.2,32.1,29.60,NW,318,4.0,7.0,29,0.00,,,0.01,Wunderground v.1.15,2013-05-12 19:21:00,
2013-05-12 15:26:00,65.4,32.3,29.61,West,267,8.0,9.0,29,0.00,,,0.01,Wunderground v.1.15,2013-05-12 19:26:00,
2013-05-12 15:32:00,65.6,32.5,29.61,NW,326,6.0,6.0,29,0.00,,,0.01,Wunderground v.1.15,2013-05-12 19:32:00,
2013-05-12 15:37:00,65.1,31.2,29.61,NNW,339,5.0,16.0,28,0.00,,,0.01,Wunderground v.1.15,2013-05-12 19:37:00,
2013-05-12 15:42:00,65.0,31.1,29.61,NW,308,15.0,15.0,28,0.00,,,0.01,Wunderground v.1.15,2013-05-12 19:42:00,
2013-05-12 15:47:00,64.4,31.4,29.61,NW,309,7.0,15.0,29,0.00,,,0.01,Wunderground v.1.15,2013-05-12 19:47:00,
2013-05-12 15:52:00,64.9,31.9,29.61,NNW,343,6.0,9.0,29,0.00,,,0.01,Wunderground v.1.15,2013-05-12 19:52:00,
2013-05-12 15:57:00,64.7,31.7,29.61,WNW,293,8.0,23.0,29,0.00,,,0.01,Wunderground v.1.15,2013-05-12 19:57:00,
2013-05-12 16:02:00,64.3,31.3,29.61,NNW,333,6.0,18.0,29,0.00,,,0.01,Wunderground v.1.15,2013-05-12 20:02:00,
2013-05-12 16:07:00,64.7,31.7,29.62,NNW,335,8.0,18.0,29,0.00,,,0.01,Wunderground v.1.15,2013-05-12 20:07:00,
2013-05-12 16:12:00,64.1,31.2,29.62,NW,319,7.0,17.0,29,0.00,,,0.01,Wunderground v.1.15,2013-05-12 20:12:00,
2013-05-12 16:17:00,63.8,30.9,29.61,NNW,330,3.0,17.0,29,0.00,,,0.01,Wunderground v.1.15,2013-05-12 20:17:00,
2013-05-12 16:22:00,64.2,32.1,29.62,West,277,11.0,16.0,30,0.00,,,0.01,Wunderground v.1.15,2013-05-12 20:22:00,
2013-05-12 16:27:00,63.8,32.6,29.62,WNW,295,3.0,20.0,31,0.00,,,0.01,Wunderground v.1.15,2013-05-12 20:27:00,
2013-05-12 16:32:00,64.0,33.5,29.62,NNE,12,6.0,10.0,32,0.00,,,0.01,Wunderground v.1.15,2013-05-12 20:32:00,
2013-05-12 16:37:00,63.9,32.6,29.63,West,272,8.0,19.0,31,0.00,,,0.01,Wunderground v.1.15,2013-05-12 20:37:00,
2013-05-12 16:42:00,63.9,34.2,29.63,SW,232,11.0,15.0,33,0.00,,,0.01,Wunderground v.1.15,2013-05-12 20:42:00,
2013-05-12 16:48:00,63.7,34.0,29.63,NNW,348,4.0,15.0,33,0.00,,,0.01,Wunderground v.1.15,2013-05-12 20:48:00,
2013-05-12 16:53:00,63.9,35.0,29.63,North,352,3.0,14.0,34,0.00,,,0.01,Wunderground v.1.15,2013-05-12 20:53:00,
2013-05-12 16:58:00,64.1,35.1,29.63,WNW,286,16.0,16.0,34,0.00,,,0.01,Wunderground v.1.15,2013-05-12 20:58:00,
2013-05-12 17:03:00,63.9,34.2,29.64,NNW,335,3.0,14.0,33,0.00,,,0.01,Wunderground v.1.15,2013-05-12 21:03:00,
2013-05-12 17:08:00,63.3,32.9,29.64,West,278,10.0,19.0,32,0.00,,,0.01,Wunderground v.1.15,2013-05-12 21:08:00,
2013-05-12 17:13:00,63.1,32.7,29.65,NW,326,14.0,19.0,32,0.00,,,0.01,Wunderground v.1.15,2013-05-12 21:13:00,
2013-05-12 17:18:00,62.7,33.2,29.65,WNW,300,6.0,26.0,33,0.00,,,0.01,Wunderground v.1.15,2013-05-12 21:18:00,
2013-05-12 17:23:00,62.2,32.7,29.65,NW,326,2.0,13.0,33,0.00,,,0.01,Wunderground v.1.15,2013-05-12 21:23:00,
2013-05-12 17:29:00,62.3,32.0,29.65,NW,304,5.0,19.0,32,0.00,,,0.01,Wunderground v.1.15,2013-05-12 21:29:00,
2013-05-12 17:34:00,61.7,33.0,29.65,WSW,257,4.0,12.0,34,0.00,,,0.01,Wunderground v.1.15,2013-05-12 21:34:00,
2013-05-12 17:39:00,61.4,32.0,29.65,NNW,331,5.0,14.0,33,0.00,,,0.01,Wunderground v.1.15,2013-05-12 21:39:00,
2013-05-12 17:44:00,61.6,32.2,29.66,NW,325,6.0,15.0,33,0.00,,,0.01,Wunderground v.1.15,2013-05-12 21:44:00,
2013-05-12 17:49:00,61.9,31.7,29.66,NW,326,7.0,16.0,32,0.00,,,0.01,Wunderground v.1.15,2013-05-12 21:49:00,
2013-05-12 17:54:00,62.1,31.9,29.66,WSW,248,5.0,19.0,32,0.00,,,0.01,Wunderground v.1.15,2013-05-12 21:54:00,
2013-05-12 17:59:00,62.0,31.8,29.67,NW,317,7.0,19.0,32,0.00,,,0.01,Wunderground v.1.15,2013-05-12 21:59:00,
2013-05-12 18:04:00,61.8,31.6,29.67,NW,311,4.0,13.0,32,0.00,,,0.01,Wunderground v.1.15,2013-05-12 22:04:00,
2013-05-12 18:09:00,61.9,31.7,29.67,NW,321,9.0,16.0,32,0.00,,,0.01,Wunderground v.1.15,2013-05-12 22:09:00,
2013-05-12 18:14:00,61.7,30.7,29.67,WNW,290,8.0,14.0,31,0.00,,,0.01,Wunderground v.1.15,2013-05-12 22:14:00,
2013-05-12 18:19:00,61.6,29.8,29.67,NW,321,5.0,20.0,30,0.00,,,0.01,Wunderground v.1.15,2013-05-12 22:19:00,
2013-05-12 18:24:00,61.4,29.7,29.68,NNW,332,10.0,13.0,30,0.00,,,0.01,Wunderground v.1.15,2013-05-12 22:24:00,
2013-05-12 18:29:00,61.4,29.7,29.68,West,268,6.0,19.0,30,0.00,,,0.01,Wunderground v.1.15,2013-05-12 22:29:00,
2013-05-12 18:35:00,61.0,28.5,29.68,NE,38,10.0,17.0,29,0.00,,,0.01,Wunderground v.1.15,2013-05-12 22:35:00,
2013-05-12 18:40:00,61.0,30.1,29.68,NNW,340,3.0,18.0,31,0.00,,,0.01,Wunderground v.1.15,2013-05-12 22:40:00,
2013-05-12 18:45:00,60.9,28.4,29.68,SW,229,10.0,18.0,29,0.00,,,0.01,Wunderground v.1.15,2013-05-12 22:45:00,
2013-05-12 18:50:00,60.6,29.0,29.68,NW,319,7.0,18.0,30,0.00,,,0.01,Wunderground v.1.15,2013-05-12 22:50:00,
2013-05-12 18:55:00,60.3,28.7,29.69,WNW,283,6.0,18.0,30,0.00,,,0.01,Wunderground v.1.15,2013-05-12 22:55:00,
2013-05-12 19:00:00,60.1,29.3,29.69,West,276,4.0,18.0,31,0.00,,,0.01,Wunderground v.1.15,2013-05-12 23:00:00,
2013-05-12 19:05:00,60.0,28.4,29.69,NE,51,2.0,13.0,30,0.00,,,0.01,Wunderground v.1.15,2013-05-12 23:05:00,
2013-05-12 19:10:00,59.8,29.1,29.69,NNW,337,3.0,13.0,31,0.00,,,0.01,Wunderground v.1.15,2013-05-12 23:10:00,
2013-05-12 19:15:00,59.6,28.9,29.70,NNW,335,7.0,16.0,31,0.00,,,0.01,Wunderground v.1.15,2013-05-12 23:15:00,
2013-05-12 19:20:00,59.4,29.5,29.70,West,278,4.0,16.0,32,0.00,,,0.01,Wunderground v.1.15,2013-05-12 23:20:00,
2013-05-12 19:25:00,59.2,29.3,29.70,WNW,285,3.0,8.0,32,0.00,,,0.01,Wunderground v.1.15,2013-05-12 23:25:00,
2013-05-12 19:31:00,58.9,29.1,29.71,NW,316,2.0,5.0,32,0.00,,,0.01,Wunderground v.1.15,2013-05-12 23:31:00,
2013-05-12 19:36:00,58.6,29.6,29.71,WNW,297,5.0,9.0,33,0.00,,,0.01,Wunderground v.1.15,2013-05-12 23:36:00,
2013-05-12 19:41:00,58.3,29.3,29.71,WNW,295,2.0,3.0,33,0.00,,,0.01,Wunderground v.1.15,2013-05-12 23:41:00,
2013-05-12 19:46:00,58.0,29.0,29.72,West,276,2.0,10.0,33,0.00,,,0.01,Wunderground v.1.15,2013-05-12 23:46:00,
2013-05-12 19:51:00,57.7,29.5,29.72,NW,312,2.0,3.0,34,0.00,,,0.01,Wunderground v.1.15,2013-05-12 23:51:00,
2013-05-12 19:56:00,57.4,29.2,29.72,West,281,3.0,4.0,34,0.00,,,0.01,Wunderground v.1.15,2013-05-12 23:56:00,
2013-05-12 20:01:00,57.2,29.8,29.72,NW,308,2.0,3.0,35,0.00,,,0.01,Wunderground v.1.15,2013-05-13 00:01:00,
2013-05-12 20:06:00,56.9,29.5,29.72,NW,323,3.0,9.0,35,0.00,,,0.01,Wunderground v.1.15,2013-05-13 00:06:00,
2013-05-12 20:11:00,56.8,29.4,29.72,WSW,257,5.0,7.0,35,0.00,,,0.01,Wunderground v.1.15,2013-05-13 00:11:00,
2013-05-12 20:16:00,56.6,29.2,29.73,WNW,284,4.0,7.0,35,0.00,,,0.01,Wunderground v.1.15,2013-05-13 00:16:00,
2013-05-12 20:21:00,56.5,29.1,29.73,WNW,284,3.0,7.0,35,0.00,,,0.01,Wunderground v.1.15,2013-05-13 00:21:00,
2013-05-12 20:27:00,56.3,29.7,29.73,WSW,253,5.0,7.0,36,0.00,,,0.01,Wunderground v.1.15,2013-05-13 00:27:00,
2013-05-12 20:32:00,56.3,29.7,29.73,WNW,290,3.0,8.0,36,0.00,,,0.01,Wunderground v.1.15,2013-05-13 00:32:00,
2013-05-12 20:37:00,56.1,29.5,29.73,NW,321,4.0,8.0,36,0.00,,,0.01,Wunderground v.1.15,2013-05-13 00:37:00,
2013-05-12 20:42:00,56.0,29.4,29.74,NW,312,3.0,6.0,36,0.00,,,0.01,Wunderground v.1.15,2013-05-13 00:42:00,
2013-05-12 20:47:00,56.0,29.4,29.74,WNW,286,1.0,10.0,36,0.00,,,0.01,Wunderground v.1.15,2013-05-13 00:47:00,
2013-05-12 20:52:00,55.9,30.0,29.74,NW,323,3.0,8.0,37,0.00,,,0.01,Wunderground v.1.15,2013-05-13 00:52:00,
2013-05-12 20:57:00,55.7,30.5,29.75,West,262,4.0,8.0,38,0.00,,,0.01,Wunderground v.1.15,2013-05-13 00:57:00,
2013-05-12 21:02:00,55.5,29.6,29.75,NW,323,5.0,5.0,37,0.00,,,0.01,Wunderground v.1.15,2013-05-13 01:02:00,
2013-05-12 21:07:00,55.6,30.4,29.76,NNW,330,11.0,19.0,38,0.00,,,0.01,Wunderground v.1.15,2013-05-13 01:07:00,
2013-05-12 21:12:00,55.6,31.0,29.76,North,358,4.0,6.0,39,0.00,,,0.01,Wunderground v.1.15,2013-05-13 01:12:00,
2013-05-12 21:17:00,55.4,31.5,29.76,NW,316,4.0,13.0,40,0.00,,,0.01,Wunderground v.1.15,2013-05-13 01:17:00,
2013-05-12 21:22:00,55.2,31.3,29.77,ENE,77,6.0,6.0,40,0.00,,,0.01,Wunderground v.1.15,2013-05-13 01:22:00,
2013-05-12 21:27:00,54.9,31.6,29.77,NW,305,2.0,8.0,41,0.00,,,0.01,Wunderground v.1.15,2013-05-13 01:27:00,
2013-05-12 21:32:00,54.7,32.0,29.78,NE,46,5.0,8.0,42,0.00,,,0.01,Wunderground v.1.15,2013-05-13 01:32:00,
2013-05-12 21:37:00,54.5,31.9,29.78,NNE,14,10.0,13.0,42,0.00,,,0.01,Wunderground v.1.15,2013-05-13 01:37:00,
2013-05-12 21:42:00,54.3,31.7,29.79,NNW,340,1.0,10.0,42,0.00,,,0.01,Wunderground v.1.15,2013-05-13 01:42:00,
2013-05-12 21:47:00,54.2,31.6,29.79,NW,323,3.0,11.0,42,0.00,,,0.01,Wunderground v.1.15,2013-05-13 01:47:00,
2013-05-12 21:52:00,54.1,31.5,29.79,WNW,290,5.0,7.0,42,0.00,,,0.01,Wunderground v.1.15,2013-05-13 01:52:00,
2013-05-12 21:57:00,53.8,31.8,29.80,NNW,339,3.0,9.0,43,0.00,,,0.01,Wunderground v.1.15,2013-05-13 01:57:00,
2013-05-12 22:02:00,53.6,32.2,29.80,NW,317,2.0,5.0,44,0.00,,,0.01,Wunderground v.1.15,2013-05-13 02:02:00,
2013-05-12 22:07:00,53.6,32.2,29.80,North,354,2.0,11.0,44,0.00,,,0.01,Wunderground v.1.15,2013-05-13 02:07:00,
2013-05-12 22:12:00,53.4,32.6,29.80,NW,315,3.0,8.0,45,0.00,,,0.01,Wunderground v.1.15,2013-05-13 02:12:00,
2013-05-12 22:17:00,53.2,32.4,29.81,NNE,25,9.0,10.0,45,0.00,,,0.01,Wunderground v.1.15,2013-05-13 02:17:00,
2013-05-12 22:22:00,53.0,31.6,29.81,NNW,338,9.0,19.0,44,0.00,,,0.01,Wunderground v.1.15,2013-05-13 02:22:00,
2013-05-12 22:27:00,52.9,32.1,29.81,NNW,332,2.0,19.0,45,0.00,,,0.01,Wunderground v.1.15,2013-05-13 02:27:00,
2013-05-12 22:32:00,52.6,30.7,29.81,NNE,18,5.0,12.0,43,0.00,,,0.01,Wunderground v.1.15,2013-05-13 02:32:00,
2013-05-12 22:38:00,52.5,31.2,29.81,WNW,300,5.0,12.0,44,0.00,,,0.01,Wunderground v.1.15,2013-05-13 02:38:00,
2013-05-12 22:43:00,52.4,31.1,29.81,WNW,300,6.0,6.0,44,0.00,,,0.01,Wunderground v.1.15,2013-05-13 02:43:00,
2013-05-12 22:48:00,52.2,30.9,29.82,NW,308,3.0,9.0,44,0.00,,,0.01,Wunderground v.1.15,2013-05-13 02:48:00,
2013-05-12 22:53:00,52.1,30.8,29.82,NW,319,7.0,7.0,44,0.00,,,0.01,Wunderground v.1.15,2013-05-13 02:53:00,
2013-05-12 22:58:00,51.9,30.1,29.82,NW,308,4.0,11.0,43,0.00,,,0.01,Wunderground v.1.15,2013-05-13 02:58:00,
2013-05-12 23:03:00,51.8,30.6,29.82,NNW,347,6.0,8.0,44,0.00,,,0.01,Wunderground v.1.15,2013-05-13 03:03:00,
2013-05-12 23:08:00,51.6,30.4,29.82,WSW,253,3.0,8.0,44,0.00,,,0.01,Wunderground v.1.15,2013-05-13 03:08:00,
2013-05-12 23:13:00,51.4,30.7,29.83,NW,308,4.0,10.0,45,0.00,,,0.01,Wunderground v.1.15,2013-05-13 03:13:00,
2013-05-12 23:18:00,51.4,30.2,29.82,NNW,340,2.0,11.0,44,0.00,,,0.01,Wunderground v.1.15,2013-05-13 03:18:00,
2013-05-12 23:23:00,51.2,30.0,29.82,WSW,243,6.0,9.0,44,0.00,,,0.01,Wunderground v.1.15,2013-05-13 03:23:00,
2013-05-12 23:29:00,51.1,29.9,29.83,WNW,301,3.0,9.0,44,0.00,,,0.01,Wunderground v.1.15,2013-05-13 03:29:00,
2013-05-12 23:34:00,51.0,29.8,29.83,NW,323,2.0,6.0,44,0.00,,,0.01,Wunderground v.1.15,2013-05-13 03:34:00,
2013-05-12 23:39:00,50.9,30.3,29.83,North,357,1.0,9.0,45,0.00,,,0.01,Wunderground v.1.15,2013-05-13 03:39:00,
2013-05-12 23:44:00,50.8,30.2,29.83,North,350,2.0,10.0,45,0.00,,,0.01,Wunderground v.1.15,2013-05-13 03:44:00,
2013-05-12 23:49:00,50.6,30.0,29.83,NW,326,4.0,10.0,45,0.00,,,0.01,Wunderground v.1.15,2013-05-13 03:49:00,
2013-05-12 23:54:00,50.4,30.4,29.83,WSW,257,4.0,5.0,46,0.00,,,0.01,Wunderground v.1.15,2013-05-13 03:54:00,
2013-05-12 23:59:00,50.3,30.3,29.83,NW,316,2.0,5.0,46,0.00,,,0.01,Wunderground v.1.15,2013-05-13 03:59:00,